Погода в Меренге

Россия / Магаданская область     61°53′30″N   156°07′56″E
темп.,
°C
ветер,
м/с
пор.,
м/с
влажн.,
%
обл.,
%
осадки,
мм/ч
давл.,
гПа
погр.,
м
19 апреля, пн
пн1923:00−13ююв22859 0.0 102013
02:00−14в119222 0.0 102210
05:00−14св119132 0.0 102410
08:00−8ююз118919 0.0 102558
11:00−4ю228922 0.0 1025222
14:00−2ююв229364 0.0 1025340
17:00−2ююв3487100 0.0 1026544
20:00−5ююв229487 0.0 102730
20 апреля, вт
вт2023:00−8вюв219791 0.0 102710
02:00−6юв119798 0.1 102430
05:00−5ююв1297100 0.3 102348
08:00−3ююв2396100 0.3 1022200
11:00−1ююв4792100 0.4 1022562
14:000ююв41084100 0.0 10221142
17:00−2юв31289100 0.2 10231100
20:00−4ююв339790 1.0 102483
21 апреля, ср
ср2123:00−6юв239785 1.8 102650
02:00−7юв229787 0.6 102634
05:00−7юв229891 1.1 102821
08:00−4ююв459696 0.2 1026322
11:00−2ююв4585100 0.3 1026711
14:00−3ююв4588100 0.2 1026621
17:00−3ююв3490100 0.4 1026487
20:00−5ююв3396100 0.1 102746
22 апреля, чт
чт2223:00−6ююв3297100 0.1 102734
02:00−6ююв2396100 0.1 102749
05:00−10юв229644 0.2 102813
08:00−5ююв349646 0.0 1027180
11:00−3ю458685 0.1 1026568
14:00−3ю4587100 0.0 1025537
17:00−3ю458828 0.1 1026379
20:00−9юв229660 0.0 102711
23 апреля, пт
пт2323:00−8юв119691 0.0 102715
02:00−6ююв239593 0.1 102670
05:00−7юв229592 0.1 102526
08:00−5ю239294 0.0 1024239
11:00−4ююв458893 0.1 1023483
14:00−3ююв348665 0.0 1021426
17:00−3ююв348799 0.0 1020377
20:00−7ююв3395100 0.0 102021